| time (UTC) | temp F | wind direction | speed MPH | gust MPH | rain 1hr in | rain 24hr in | rain mn in | humidity % | barometer mb |
| 20260505041556 | 38 | 285 | 3.0 | 7.0 | 0.00 | 0.00 | 0.00 | 51 | 941.0 |
| 20260505040055 | 38 | 301 | 2.0 | 6.0 | 0.00 | 0.00 | 0.00 | 50 | 941.0 |
| 20260505034552 | 38 | 285 | 3.0 | 8.0 | 0.00 | 0.00 | 0.00 | 49 | 940.9 |
| 20260505033052 | 39 | 292 | 3.0 | 8.0 | 0.00 | 0.00 | 0.00 | 49 | 940.8 |
| 20260505031549 | 39 | 296 | 2.0 | 5.0 | 0.00 | 0.00 | 0.00 | 49 | 940.7 |
| 20260505030048 | 39 | 288 | 2.0 | 6.0 | 0.00 | 0.00 | 0.00 | 51 | 940.6 |
| 20260505024546 | 38 | 286 | 2.0 | 9.0 | 0.00 | 0.00 | 0.00 | 52 | 940.4 |
| 20260505023050 | 38 | 298 | 1.0 | 5.0 | 0.00 | 0.00 | 0.00 | 51 | 940.3 |
| 20260505021544 | 39 | 296 | 1.0 | 4.0 | 0.00 | 0.00 | 0.00 | 50 | 940.2 |
| 20260505020042 | 40 | 300 | 2.0 | 9.0 | 0.00 | 0.00 | 0.00 | 49 | 940.0 |
| 20260505014539 | 41 | 348 | 2.0 | 14.0 | 0.00 | 0.00 | 0.00 | 48 | 939.7 |
| 20260505013038 | 42 | 306 | 3.0 | 11.0 | 0.00 | 0.00 | 0.00 | 45 | 939.5 |
| 20260505011545 | 43 | 321 | 5.0 | 17.0 | 0.00 | 0.00 | 0.00 | 44 | 939.4 |
| 20260505010038 | 43 | 294 | 6.0 | 14.0 | 0.00 | 0.00 | 0.00 | 43 | 939.3 |
| 20260505004535 | 43 | 292 | 4.0 | 13.0 | 0.00 | 0.00 | 0.00 | 43 | 939.1 |
| 20260505003032 | 44 | 304 | 7.0 | 21.0 | 0.00 | 0.00 | 0.00 | 42 | 939.1 |
| 20260505001531 | 45 | 305 | 6.0 | 16.0 | 0.00 | 0.00 | 0.00 | 42 | 938.9 |
| 20260505000032 | 44 | 320 | 7.0 | 18.0 | 0.00 | 0.00 | 0.00 | 44 | 938.9 |
| 20260504234528 | 44 | 306 | 4.0 | 13.0 | 0.00 | 0.00 | 0.00 | 43 | 938.9 |
| 20260504233027 | 44 | 292 | 8.0 | 13.0 | 0.00 | 0.00 | 0.00 | 42 | 938.8 |
| 20260504231526 | 45 | 308 | 8.0 | 22.0 | 0.00 | 0.00 | 0.00 | 42 | 938.7 |
| 20260504230027 | 46 | 308 | 7.0 | 16.0 | 0.00 | 0.00 | 0.00 | 41 | 938.5 |
| 20260504224523 | 46 | 306 | 10.0 | 27.0 | 0.00 | 0.00 | 0.00 | 41 | 938.5 |
| 20260504223023 | 47 | 322 | 9.0 | 25.0 | 0.00 | 0.00 | 0.00 | 41 | 938.4 |
| 20260504221524 | 47 | 317 | 7.0 | 23.0 | 0.00 | 0.00 | 0.00 | 41 | 938.3 |
| 20260504220024 | 47 | 303 | 7.0 | 21.0 | 0.00 | 0.00 | 0.00 | 42 | 938.2 |
| 20260504214520 | 46 | 323 | 8.0 | 18.0 | 0.00 | 0.00 | 0.00 | 42 | 938.1 |
| 20260504213019 | 47 | 360 | 9.0 | 17.0 | 0.00 | 0.00 | 0.00 | 42 | 938.1 |
| 20260504211518 | 46 | 296 | 10.0 | 22.0 | 0.00 | 0.00 | 0.00 | 43 | 938.2 |
| 20260504210023 | 46 | 306 | 8.0 | 22.0 | 0.00 | 0.00 | 0.00 | 45 | 938.3 |
| 20260504204517 | 46 | 295 | 7.0 | 14.0 | 0.00 | 0.00 | 0.00 | 45 | 938.2 |
| 20260504203117 | 45 | 292 | 9.0 | 18.0 | 0.00 | 0.00 | 0.00 | 46 | 938.4 |
| 20260504201516 | 46 | 312 | 7.0 | 18.0 | 0.00 | 0.00 | 0.00 | 47 | 938.3 |
| 20260504200029 | 46 | 311 | 8.0 | 21.0 | 0.00 | 0.00 | 0.00 | 46 | 938.3 |
| 20260504194514 | 46 | 302 | 8.0 | 17.0 | 0.00 | 0.00 | 0.00 | 50 | 938.3 |
| 20260504193014 | 45 | 294 | 6.0 | 13.0 | 0.00 | 0.00 | 0.00 | 52 | 938.4 |
| 20260504191527 | 44 | 294 | 6.0 | 13.0 | 0.00 | 0.00 | 0.00 | 53 | 938.4 |
| 20260504190013 | 43 | 283 | 7.0 | 15.0 | 0.00 | 0.00 | 0.00 | 52 | 938.4 |
| 20260504184513 | 44 | 300 | 5.0 | 15.0 | 0.00 | 0.00 | 0.00 | 52 | 938.2 |
| 20260504183022 | 45 | 304 | 7.0 | 16.0 | 0.00 | 0.00 | 0.00 | 49 | 938.1 |
| 20260504181513 | 44 | 303 | 5.0 | 14.0 | 0.00 | 0.00 | 0.00 | 50 | 938.3 |
| 20260504180009 | 44 | 309 | 6.0 | 17.0 | 0.00 | 0.00 | 0.00 | 49 | 938.2 |
| 20260504174512 | 45 | 302 | 7.0 | 17.0 | 0.00 | 0.00 | 0.00 | 48 | 938.1 |
| 20260504173007 | 44 | 303 | 9.0 | 22.0 | 0.00 | 0.00 | 0.00 | 48 | 938.3 |
| 20260504171507 | 43 | 316 | 9.0 | 17.0 | 0.00 | 0.00 | 0.00 | 50 | 938.2 |
| 20260504081554 | 46 | 293 | 4.0 | 15.0 | 0.00 | 0.00 | 0.00 | 49 | 934.7 |
| 20260504050020 | 55 | 333 | 1.0 | 4.0 | 0.00 | 0.00 | 0.00 | 41 | 932.1 |